CZ-3C DEB, 39339

Orbit data source: Space-Track

CZ-3C DEB, 39339 is space debris in HEO originally from a launch on Sun, 31 Oct 2010 UTC launched from the Xichang Space Center, China (XSC). Debris objects in space refer to the collection of defunct objects orbiting the Earth. Examples of debris include non-operational satellites, rocket bodies, and fragments generated from explosions, collisions, or faulty payload assembly.

Loading next visibility...
Identifier
39339, 2010-057D
Orbit
HEO
Country
Flag of CNCN / PRC
Related business
Manufacturer
CALT
Mission
Spacecraft
Bus & Motor
Unknown
Mass
Unknown
Launch date (UTC)
2010-10-31 (15 years ago)
Launch vehicle
Unknown
Launch site
Xichang Space Center, China (XSC)
Object type
Payload
Rocket body
Debris
Shape & HBR
Unknown shape, 0.3 m
Radar Cross Section
Medium (>0.1 m² and <1 m²)

Expand to show TLE details & history
Last TLE update: 3 days ago

TLE from 3 days ago
0 CZ-3C DEB
1 39339U 10057D   25291.35356691 -.00000314  00000-0  63314-3 0  9996
2 39339  21.4759 335.6671 7170603  66.9968   2.7914  2.14512659 94120
Epoch: 2025-10-18T08:29Z
TLE epoch observation values (Epoch: 2025-10-18T08:29:08.181Z)
Latitude
21.56226°
Longitude
-86.42105°
Altitude
1,080.47 km
Speed
9.551 km/s
True Right ascension
04h 31m 47s
True Declination
21° 27' 00"
Sunlit
Object was in full shadow at epoch
Visualization orbit readout
Latitude
Unknown
Longitude
Unknown
Altitude
Unknown
Speed
Unknown
Apparent Right ascension
Unknown
Apparent Declination
Unknown
Sunlit
N/A
Visualization observer readout
Local Sidereal Time
21:39:12
Azimuth
Unknown
Elevation
Unknown
Doppler factor
Unknown
Orbital elements
Apogee altitude
37,235.504 km
Perigee altitude
808.582 km
Semi-major axis
25,400.18 km
Eccentricity
0.71706
Inclination
21.4759°
RAAN
335.6671°
Arg. of periapsis
66.9968°
True anomaly
23.72394°
Mean anomaly
2.7914°
Eccentric anomaly
9.74674°
Mean motion
0.53615 °/min
Orbital period
671.45 mins
BSTAR
0.00063314
Loading maneuver chart data...
Computing Atmospheric mass density...
Loading historical data...
Loading historical data...
Loading historical data...
Loading historical data...
Loading historical data...
Loading historical data...
Loading historical data...

Documentation

Showing up to 5 results
|